Welcome to the New NWS' Forecast!
Most changes are behind the scenes, but click here for differences you might notice.

Regional Weather Roundup (RWR)

Issued by Gray - Portland, ME (GYX)

                            
000
ASUS41 KGYX 210410
RWRGYX
WEATHER ROUNDUP FOR MAINE AND NEW HAMPSHIRE
NATIONAL WEATHER SERVICE GRAY ME
1200 AM EDT SUN OCT 21 2018

MEZ002-005-006-010-012-015-018-020-021-024-026-027-029-210500-
MAINE
  
CITY           SKY/WX    TMP DP  RH WIND       PRES   REMARKS
PORTLAND       FAIR      39  37  92 W3        29.56S                  
SANFORD        FAIR      32  31  96 W3        29.56F                  
BAR HARBOR     FAIR      42  42 100 CALM      29.54S FOG              
WISCASSET      FAIR      37  36  96 CALM      29.57R                  
ROCKLAND       FAIR      41  39  93 NW5       29.54S                  
FRYEBURG       FAIR      37  33  85 NE6       29.58R                  
LEWISTONAUBURN FAIR      40  35  83 CALM      29.56S                  
AUGUSTA        FAIR      45  32  60 NW10      29.56R                  
WATERVILLE     FAIR      46  32  58 NW9       29.54R                  
BANGOR         FAIR      38  34  85 CALM      29.55R                  
GREENVILLE       N/A     42  30  62 W10G20    29.51R                  
MILLINOCKET    FAIR      45  32  60 CALM      29.55R                  
HOULTON        FAIR      40  33  76 CALM      29.51R                  
PRESQUE ISLE   FAIR      39  29  67 SW7       29.51R                  
FRENCHVILLE    FAIR      38  28  67 W13       29.44F                  
CARIBOU        FAIR      40  29  64 SW6       29.47S                  
$$

NHZ002-005-008-009-011-012-014-210500-
NEW HAMPSHIRE
  
CITY           SKY/WX    TMP DP  RH WIND       PRES   REMARKS
PORTSMOUTH     PTCLDY    44  40  86 CALM      29.55S                  
ROCHESTER      FAIR      44  36  73 NW5       29.56S                  
NASHUA         CLOUDY    45  43  93 NW5       29.58F                  
MANCHESTER     CLOUDY    45  39  79 CALM      29.56F                  
CONCORD        FAIR      36  33  89 CALM      29.58S                  
LACONIA        FAIR      38  36  92 SW3       29.58S                  
PLYMOUTH       FAIR      37  35  91 CALM      29.58S                  
BERLIN         FAIR      35  31  85 CALM      29.58R                  
WHITEFIELD     MOCLDY    36  33  89 S3        29.60R                  
JAFFREY        CLOUDY    42  41  96 CALM      29.59S                  
KEENE          MOCLDY    39  38  96 CALM      29.60S                  
LEBANON        FAIR      38  32  79 CALM      29.58F                  
MT WASHINGTON  FOG       23  23 100 W37         N/A  VSB 0   WCI   4  
$$

VTZ005-007-008-210500-
VERMONT
  
CITY           SKY/WX    TMP DP  RH WIND       PRES   REMARKS
ST JOHNSBURY     N/A     37  33  85 MISG      29.59S                  
MONTPELIER     FAIR      42  30  62 NW8       29.64R                  
BURLINGTON     MOCLDY    46  31  55 N9G18     29.65R                  
$$

MAZ007-012-024-CTZ003-RIZ002-NYZ038-NYZ072-210500-
SOUTHERN NEW ENGLAND AND NY
  
CITY           SKY/WX    TMP DP  RH WIND       PRES   REMARKS
BOSTON         FAIR      50  43  77 SW8       29.58F                  
WORCESTER      CLOUDY    46  42  86 W9        29.58F                  
NANTUCKET      LGT RAIN  54  48  80 NW7       29.60F                  
PROVIDENCE     MOCLDY    49  44  83 W5        29.60F                  
HARTFORD       MOCLDY    49  44  83 SE3       29.60F                  
ALBANY         CLOUDY    46  40  79 W6        29.63S                  
NEW YORK CITY  FAIR      55  42  61 NW9       29.62F                  
$$

ANZ081-ANZ082-ANZ150-NHZ014-MEZ023>029-210500-
COASTAL MARINE OBSERVATIONS
  
STATION/POSITION TIME  TEMP    WIND        PRES    WAVE
                       AIR SEA DIR/SP/G            HT/PER
                 (UTC) (F)     (DEG/KT/KT) (MB)    (FT/S)
MOUNT DESERT ROC 0400   55     260/  9/ 10 1000.1R
MATINICUS ROCK   0300   54     250/ 14/ 14  999.7R
ISLE OF SHOALS   0300   53     270/ 12/ 13 1000.7R
JEFFREYS LEDGE   0306      55                N/A     2/ 5
$$

.............KEY..............
   WCI - WIND CHILL
   TC  - TEMPERATURE IN CELSIUS
   VSB - VISIBILITY IN MILES
   HX  - HEAT INDEX
   FAIR- INDICATES FEW OR NO CLOUDS BELOW 12,000 FT, WITH NO 
         SIGNIFICANT WEATHER AND/OR OBSTRUCTIONS TO VISIBILITY.